Location: Home
(42.5358°N, 72.7383°W)
Time: 05:37:18
(UTC-05:00)

Courier 1B Rocket - Pass Details

Date: 30 November 2021
Orbit: 920 x 1202 km, 28.2° (Epoch: 25 January)

Event Time Altitude Azimuth Distance (km) Brightness Sun altitude
Rises 23:53:37 0° 221° (SW) 3,555 - -68.9°
Reaches altitude 10° 23:57:18 10° 200° (SSW) 2,601 - -68.8°
Maximum altitude 00:00:53 16° 165° (SSE) 2,205 - -68.7°
Drops below altitude 10° 00:04:29 10° 129° (SE) 2,618 - -68.5°
Sets 00:08:12 0° 108° (ESE) 3,590 - -68.3°
